EW7909 Weather Reports


time (UTC)temp
C
wind
direction
speed
KPH
gust
KPH
rain 1hr
cm
rain 24hr
cm
rain mn
cm
humidity
%
barometer
mb
20260503034514 10 9 0.0 0.0 0.00 0.00 0.00 61 1013.1
20260503033014 11 9 0.0 0.0 0.00 0.00 0.00 59 1013.1
20260503031513 11 9 0.0 0.0 0.00 0.00 0.00 61 1013.1
20260503030011 11 9 0.0 0.0 0.00 0.00 0.00 64 1013.1
20260503024508 11 9 0.0 0.0 0.00 0.00 0.00 65 1013.1
20260503023022 11 9 0.0 0.0 0.00 0.00 0.00 68 1013.3
20260503021504 11 9 0.0 0.0 0.00 0.00 0.00 68 1013.3
20260503020006 11 9 0.0 0.0 0.00 0.00 0.00 66 1013.2
20260503014505 11 9 0.0 0.0 0.00 0.00 0.00 66 1013.3
20260503013001 12 9 0.0 0.0 0.00 0.00 0.00 67 1013.3
20260503011608 12 9 0.0 1.6 0.00 0.00 0.00 68 1013.3
20260503010101 11 9 1.6 4.8 0.00 0.00 0.00 69 1013.2
20260503004556 12 9 0.0 4.8 0.00 0.00 0.00 70 1013.6
20260503003100 12 9 1.6 4.8 0.00 0.00 0.00 71 1013.6
20260503001550 12 9 0.0 0.0 0.00 0.00 0.00 71 1013.9
20260503000100 12 9 0.0 0.0 0.00 0.00 0.00 72 1014.0
20260502234547 13 9 0.0 0.0 0.00 0.00 0.00 71 1014.2
20260502233047 13 9 0.0 0.0 0.00 0.00 0.00 71 1014.2
20260502231546 13 9 1.6 4.8 0.00 0.00 0.00 71 1014.2
20260502230043 13 9 1.6 6.4 0.00 0.00 0.00 71 1014.2
20260502224539 14 265 3.2 4.8 0.00 0.00 0.00 67 1014.2
20260502223035 15 263 0.0 3.2 0.00 0.00 0.00 67 1014.2
20260502221532 15 263 0.0 4.8 0.00 0.00 0.00 67 1014.2
20260502220056 14 263 0.0 3.2 0.00 0.00 0.00 67 1014.2
20260502214536 15 263 0.0 3.2 0.00 0.00 0.00 66 1014.2
20260502213133 15 263 0.0 3.2 0.00 0.00 0.00 65 1014.3
20260502211555 15 264 0.0 0.0 0.00 0.00 0.00 64 1014.3
20260502210008 14 265 0.0 3.2 0.00 0.00 0.00 63 1014.3
20260502204615 14 265 0.0 4.8 0.00 0.00 0.00 66 1014.3
20260502203026 14 265 1.6 4.8 0.00 0.00 0.00 66 1014.3
20260502201612 15 265 1.6 4.8 0.00 0.00 0.00 65 1014.2
20260502200043 16 267 0.0 4.8 0.00 0.00 0.00 58 1014.2
20260502194502 16 267 0.0 0.0 0.00 0.00 0.00 55 1014.1
20260502193049 17 267 0.0 4.8 0.00 0.00 0.00 55 1013.9
20260502191519 17 267 0.0 0.0 0.00 0.00 0.00 54 1013.9
20260502190103 18 267 0.0 0.0 0.00 0.00 0.00 54 1013.7
20260502184528 18 267 0.0 3.2 0.00 0.00 0.00 53 1013.6
20260502183114 20 267 0.0 4.8 0.00 0.00 0.00 55 1013.6
20260502181548 21 278 0.0 0.0 0.00 0.00 0.00 56 1013.6
20260502180131 21 278 0.0 3.2 0.00 0.00 0.00 55 1013.5
20260502163035 23 271 3.2 11.3 0.00 0.00 0.00 51 1013.7
20260502161613 23 238 6.4 11.3 0.00 0.00 0.00 49 1014.0
20260502151504 23 309 0.0 6.4 0.00 0.00 0.00 48 1014.6
20260502150112 23 314 3.2 8.0 0.00 0.00 0.00 49 1014.7
20260502140103 23 291 6.4 14.5 0.00 0.00 0.00 45 1015.5
20260502123026 22 250 6.4 12.9 0.00 0.00 0.00 49 1016.5
20260502121606 22 126 4.8 8.0 0.00 0.00 0.00 51 1016.7
20260502114614 21 62 4.8 12.9 0.00 0.00 0.00 54 1017.2
20260502113033 21 325 3.2 6.4 0.00 0.00 0.00 57 1017.4
20260502111623 21 284 6.4 12.9 0.00 0.00 0.00 56 1017.7
20260502110044 20 50 3.2 11.3 0.00 0.00 0.00 55 1018.0
20260502104516 20 86 3.2 12.9 0.00 0.00 0.00 56 1018.1
20260502103106 20 34 4.8 11.3 0.00 0.00 0.00 57 1018.4
20260502101515 19 53 3.2 11.3 0.00 0.00 0.00 60 1018.6
20260502091511 18 57 3.2 9.7 0.00 0.00 0.00 64 1019.3
20260502070055 16 106 0.0 0.0 0.00 0.00 0.00 69 1020.4
20260502064551 15 106 0.0 0.0 0.00 0.00 0.00 70 1020.5
20260502063101 13 106 0.0 0.0 0.00 0.00 0.00 69 1020.6
20260502061548 12 106 0.0 0.0 0.00 0.00 0.00 63 1020.7
20260502060039 12 106 0.0 0.0 0.00 0.00 0.00 54 1020.6
20260502054536 11 106 0.0 0.0 0.00 0.00 0.00 24 1020.6
20260502053050 10 106 0.0 0.0 0.00 0.00 0.00 35 1020.6
20260502051537 10 106 0.0 0.0 0.00 0.00 0.00 24 1020.5
20260502050035 10 106 0.0 0.0 0.00 0.00 0.00 23 1020.5
20260502044534 9 106 0.0 0.0 0.00 0.00 0.00 26 1020.5
20260502043036 9 106 0.0 0.0 0.00 0.00 0.00 28 1020.4
20260502041531 9 106 0.0 0.0 0.00 0.00 0.00 33 1020.5
20260502040030 9 106 0.0 0.0 0.00 0.00 0.00 32 1020.5